Regional Weather Roundup
Issued by NWS Nashville, TN

Home | Current Version | Previous Version | Text Only | Print | Product List | Glossary On
Versions: 1 2 3 4 5 6 7 8 9 10 11 12 13 14 15 16 17 18 19 20 21 22 23 24 25 26 27 28 29 30 31 32 33
000
ASUS44 KOHX 271710
RWROHX
MIDDLE TENNESSEE HOURLY WEATHER ROUNDUP
NATIONAL WEATHER SERVICE NASHVILLE TN
1200 PM CDT SAT AUG 27 2016

NOTE: "FAIR" INDICATES FEW OR NO CLOUDS BELOW 12,000 FEET WITH
NO SIGNIFICANT WEATHER AND/OR OBSTRUCTIONS TO VISIBILITY.

* THESE REPORTS ARE NOT UNDER NWS QUALITY CONTROL AND MAY NOT
  REPORT WEATHER SUCH AS PRECIPITATION AND FOG.


TNZ005>011-023>034-057-059-062>066-078-080-271800
...NORTHERN MIDDLE TENNESSEE...

CITY           SKY/WX    TMP DP  RH WIND       PRES   REMARKS
CLARKSVILLE    PTSUNNY   85  74  69 SW5       30.11S HX  92
CROSSVILLE     MOSUNNY   86  68  54 VRB6      30.20F
NASHVILLE      MOSUNNY   92  74  55 SW3       30.11F HX 101
WEST NASHVILLE SUNNY     90  73  58 W5        30.10S HX  98
SMYRNA         SUNNY     90  73  58 W6        30.12S HX  98
SPARTA         SUNNY     93  75  55 VRB5      30.13F HX 104
SPRINGFIELD    SUNNY     88  73  62 W6        30.11S HX  96
$$
TNZ056-058-060-061-075>077-079-093>097-271800
...SOUTHERN MIDDLE TENNESSEE...

CITY           SKY/WX    TMP DP  RH WIND       PRES   REMARKS
COLUMBIA       SUNNY     90  79  70 CALM      30.09F HX 105
FAYETTEVILLE   MOSUNNY   84  72  65 S5        30.12F
MCMINNVILLE    SUNNY     90  75  62 VRB3      30.13F HX 100
SHELBYVILLE    MOSUNNY   91  75  59 SE3       30.12F HX 102
TULLAHOMA      PTSUNNY   90  70  51 CALM      30.14F HX  95
WINCHESTER     MOSUNNY   84  75  74 SE5       30.13F HX  92
$$


...KEY TO REMARKS...
VSB - VISIBILITY IN MILES
WCI - WIND CHILL INDEX
HX  - HEAT INDEX





USA.gov is the U.S. government's official web portal to all federal, state and local government web resources and services.